Time,TemperatureF,DewpointF,PressureIn,WindDirection,WindDirectionDegrees,WindSpeedMPH,WindSpeedGustMPH,Humidity,HourlyPrecipIn,Conditions,Clouds,dailyrainin,SolarRadiationWatts/m^2,SoftwareType,DateUTC
2013-04-10 00:03:00,66.0,50.0,-100.00,North,-999,-999.0,-999.0,56,0.00,,,0.00,0.000000,,2013-04-10 04:03:00,
2013-04-10 00:10:00,66.0,51.0,-100.00,North,-999,-999.0,-999.0,58,0.00,,,0.00,0.000000,,2013-04-10 04:10:00,
2013-04-10 00:43:00,66.0,51.0,-100.00,North,-999,-999.0,-999.0,58,0.00,,,0.00,0.000000,,2013-04-10 04:43:00,
2013-04-10 00:53:00,66.0,51.0,-100.00,North,-999,-999.0,-999.0,58,0.00,,,0.00,0.000000,,2013-04-10 04:53:00,
2013-04-10 01:03:00,66.0,51.0,-100.00,North,-999,-999.0,-999.0,58,0.00,,,0.00,0.000000,,2013-04-10 05:03:00,
2013-04-10 01:10:00,64.0,50.0,-100.00,North,-999,-999.0,-999.0,61,0.00,,,0.00,0.000000,,2013-04-10 05:10:00,
2013-04-10 01:33:00,64.0,50.0,-100.00,North,-999,-999.0,-999.0,61,0.00,,,0.00,0.000000,,2013-04-10 05:33:00,
2013-04-10 01:43:00,64.0,50.0,-100.00,North,-999,-999.0,-999.0,61,0.00,,,0.00,0.000000,,2013-04-10 05:43:00,
2013-04-10 01:53:00,64.0,50.0,-100.00,North,-999,-999.0,-999.0,61,0.00,,,0.00,0.000000,,2013-04-10 05:53:00,
2013-04-10 02:03:00,64.0,50.0,-100.00,North,-999,-999.0,-999.0,61,0.00,,,0.00,0.000000,,2013-04-10 06:03:00,
2013-04-10 02:10:00,66.0,52.0,-100.00,North,-999,-999.0,-999.0,61,0.00,,,0.00,0.000000,,2013-04-10 06:10:00,
2013-04-10 02:43:00,66.0,52.0,-100.00,North,-999,-999.0,-999.0,61,0.00,,,0.00,0.000000,,2013-04-10 06:43:00,
2013-04-10 02:52:00,66.0,52.0,-100.00,North,-999,-999.0,-999.0,61,0.00,,,0.00,0.000000,,2013-04-10 06:52:00,
2013-04-10 03:02:00,66.0,52.0,-100.00,North,-999,-999.0,-999.0,61,0.00,,,0.00,0.000000,,2013-04-10 07:02:00,
2013-04-10 03:10:00,65.0,52.0,-100.00,North,-999,-999.0,-999.0,63,0.00,,,0.00,0.000000,,2013-04-10 07:10:00,
2013-04-10 03:43:00,65.0,52.0,-100.00,North,-999,-999.0,-999.0,63,0.00,,,0.00,0.000000,,2013-04-10 07:43:00,
2013-04-10 03:52:00,65.0,52.0,-100.00,North,-999,-999.0,-999.0,63,0.00,,,0.00,0.000000,,2013-04-10 07:52:00,
2013-04-10 04:02:00,65.0,52.0,-100.00,North,-999,-999.0,-999.0,63,0.00,,,0.00,0.000000,,2013-04-10 08:02:00,
2013-04-10 04:10:00,62.0,51.0,-100.00,North,-999,-999.0,-999.0,66,0.00,,,0.00,0.000000,,2013-04-10 08:10:00,
2013-04-10 04:43:00,62.0,51.0,-100.00,North,-999,-999.0,-999.0,66,0.00,,,0.00,0.000000,,2013-04-10 08:43:00,
2013-04-10 04:52:00,62.0,51.0,-100.00,North,-999,-999.0,-999.0,66,0.00,,,0.00,0.000000,,2013-04-10 08:52:00,
2013-04-10 05:02:00,62.0,51.0,-100.00,North,-999,-999.0,-999.0,66,0.00,,,0.00,0.000000,,2013-04-10 09:02:00,
2013-04-10 05:10:00,62.0,51.0,-100.00,North,-999,-999.0,-999.0,66,0.00,,,0.00,0.000000,,2013-04-10 09:10:00,
2013-04-10 05:43:00,62.0,51.0,-100.00,North,-999,-999.0,-999.0,66,0.00,,,0.00,0.000000,,2013-04-10 09:43:00,
2013-04-10 05:53:00,62.0,51.0,-100.00,North,-999,-999.0,-999.0,66,0.00,,,0.00,0.000000,,2013-04-10 09:53:00,
2013-04-10 06:03:00,62.0,51.0,-100.00,North,-999,-999.0,-999.0,66,0.00,,,0.00,0.000000,,2013-04-10 10:03:00,
2013-04-10 06:10:00,62.0,51.0,-100.00,North,-999,-999.0,-999.0,67,0.00,,,0.00,0.000000,,2013-04-10 10:10:00,
2013-04-10 06:33:00,62.0,51.0,-100.00,North,-999,-999.0,-999.0,67,0.00,,,0.00,0.000000,,2013-04-10 10:33:00,
2013-04-10 06:43:00,62.0,51.0,-100.00,North,-999,-999.0,-999.0,67,0.00,,,0.00,0.000000,,2013-04-10 10:43:00,
2013-04-10 06:53:00,62.0,51.0,-100.00,North,-999,-999.0,-999.0,67,0.00,,,0.00,0.000000,,2013-04-10 10:53:00,
2013-04-10 07:03:00,62.0,51.0,-100.00,North,-999,-999.0,-999.0,67,0.00,,,0.00,0.000000,,2013-04-10 11:03:00,
2013-04-10 09:10:00,67.0,50.0,-100.00,North,-999,-999.0,-999.0,54,-99.99,,,0.00,0.000000,,2013-04-10 13:10:00,
2013-04-10 09:33:00,67.0,50.0,-100.00,North,-999,-999.0,-999.0,54,-99.99,,,0.00,0.000000,,2013-04-10 13:33:00,
2013-04-10 09:43:00,67.0,50.0,-100.00,North,-999,-999.0,-999.0,54,-99.99,,,0.00,0.000000,,2013-04-10 13:43:00,
2013-04-10 09:53:00,67.0,50.0,-100.00,North,-999,-999.0,-999.0,54,-99.99,,,0.00,0.000000,,2013-04-10 13:53:00,
2013-04-10 10:02:00,67.0,50.0,-100.00,North,-999,-999.0,-999.0,54,-99.99,,,0.00,0.000000,,2013-04-10 14:02:00,
2013-04-10 10:10:00,77.0,50.0,-100.00,North,-999,-999.0,-999.0,39,0.00,,,0.00,0.000000,,2013-04-10 14:10:00,
2013-04-10 10:33:00,77.0,50.0,-100.00,North,-999,-999.0,-999.0,39,0.00,,,0.00,0.000000,,2013-04-10 14:33:00,
2013-04-10 10:42:00,77.0,50.0,-100.00,North,-999,-999.0,-999.0,39,0.00,,,0.00,0.000000,,2013-04-10 14:42:00,
2013-04-10 10:52:00,77.0,50.0,-100.00,North,-999,-999.0,-999.0,39,0.00,,,0.00,0.000000,,2013-04-10 14:52:00,
2013-04-10 11:03:00,77.0,50.0,-100.00,North,-999,-999.0,-999.0,39,0.00,,,0.00,0.000000,,2013-04-10 15:03:00,
2013-04-10 12:10:00,81.0,47.0,-100.00,North,-999,-999.0,-999.0,31,-99.99,,,0.00,0.000000,,2013-04-10 16:10:00,
2013-04-10 12:33:00,81.0,47.0,-100.00,North,-999,-999.0,-999.0,31,-99.99,,,0.00,0.000000,,2013-04-10 16:33:00,
2013-04-10 12:43:00,81.0,47.0,-100.00,North,-999,-999.0,-999.0,31,-99.99,,,0.00,0.000000,,2013-04-10 16:43:00,
2013-04-10 12:53:00,81.0,47.0,-100.00,North,-999,-999.0,-999.0,31,-99.99,,,0.00,0.000000,,2013-04-10 16:53:00,
2013-04-10 13:03:00,81.0,47.0,-100.00,North,-999,-999.0,-999.0,31,-99.99,,,0.00,0.000000,,2013-04-10 17:03:00,
2013-04-10 13:10:00,83.0,48.0,-100.00,North,-999,-999.0,-999.0,30,0.00,,,0.00,0.000000,,2013-04-10 17:10:00,
2013-04-10 13:34:00,83.0,48.0,-100.00,North,-999,-999.0,-999.0,30,0.00,,,0.00,0.000000,,2013-04-10 17:34:00,
2013-04-10 13:43:00,83.0,48.0,-100.00,North,-999,-999.0,-999.0,30,0.00,,,0.00,0.000000,,2013-04-10 17:43:00,
2013-04-10 13:53:00,83.0,48.0,-100.00,North,-999,-999.0,-999.0,30,0.00,,,0.00,0.000000,,2013-04-10 17:53:00,
2013-04-10 14:03:00,83.0,48.0,-100.00,North,-999,-999.0,-999.0,30,0.00,,,0.00,0.000000,,2013-04-10 18:03:00,
2013-04-10 14:10:00,83.0,47.0,-100.00,North,-999,-999.0,-999.0,28,0.00,,,0.00,0.000000,,2013-04-10 18:10:00,
2013-04-10 14:43:00,83.0,47.0,-100.00,North,-999,-999.0,-999.0,28,0.00,,,0.00,0.000000,,2013-04-10 18:43:00,
2013-04-10 14:53:00,83.0,47.0,-100.00,North,-999,-999.0,-999.0,28,0.00,,,0.00,0.000000,,2013-04-10 18:53:00,
2013-04-10 15:03:00,83.0,47.0,-100.00,North,-999,-999.0,-999.0,28,0.00,,,0.00,0.000000,,2013-04-10 19:03:00,
2013-04-10 15:10:00,86.0,48.0,-100.00,North,-999,-999.0,-999.0,27,0.00,,,0.00,0.000000,,2013-04-10 19:10:00,
2013-04-10 15:42:00,86.0,48.0,-100.00,North,-999,-999.0,-999.0,27,0.00,,,0.00,0.000000,,2013-04-10 19:42:00,
2013-04-10 15:53:00,86.0,48.0,-100.00,North,-999,-999.0,-999.0,27,0.00,,,0.00,0.000000,,2013-04-10 19:53:00,
2013-04-10 16:03:00,86.0,48.0,-100.00,North,-999,-999.0,-999.0,27,0.00,,,0.00,0.000000,,2013-04-10 20:03:00,
2013-04-10 16:10:00,85.0,48.0,-100.00,North,-999,-999.0,-999.0,28,0.00,,,0.00,0.000000,,2013-04-10 20:10:00,
2013-04-10 16:43:00,85.0,48.0,-100.00,North,-999,-999.0,-999.0,28,0.00,,,0.00,0.000000,,2013-04-10 20:43:00,
2013-04-10 16:53:00,85.0,48.0,-100.00,North,-999,-999.0,-999.0,28,0.00,,,0.00,0.000000,,2013-04-10 20:53:00,
2013-04-10 17:03:00,85.0,48.0,-100.00,North,-999,-999.0,-999.0,28,0.00,,,0.00,0.000000,,2013-04-10 21:03:00,
2013-04-10 17:10:00,84.0,51.0,-100.00,North,-999,-999.0,-999.0,32,0.00,,,0.00,0.000000,,2013-04-10 21:10:00,
2013-04-10 17:43:00,84.0,51.0,-100.00,North,-999,-999.0,-999.0,32,0.00,,,0.00,0.000000,,2013-04-10 21:43:00,
2013-04-10 17:53:00,84.0,51.0,-100.00,North,-999,-999.0,-999.0,32,0.00,,,0.00,0.000000,,2013-04-10 21:53:00,
2013-04-10 18:03:00,84.0,51.0,-100.00,North,-999,-999.0,-999.0,32,0.00,,,0.00,0.000000,,2013-04-10 22:03:00,
2013-04-10 18:10:00,81.0,51.0,-100.00,North,-999,-999.0,-999.0,35,0.00,,,0.00,0.000000,,2013-04-10 22:10:00,
2013-04-10 18:34:00,81.0,51.0,-100.00,North,-999,-999.0,-999.0,35,0.00,,,0.00,0.000000,,2013-04-10 22:34:00,
2013-04-10 18:43:00,81.0,51.0,-100.00,North,-999,-999.0,-999.0,35,0.00,,,0.00,0.000000,,2013-04-10 22:43:00,
2013-04-10 18:53:00,81.0,51.0,-100.00,North,-999,-999.0,-999.0,35,0.00,,,0.00,0.000000,,2013-04-10 22:53:00,
2013-04-10 19:03:00,81.0,51.0,-100.00,North,-999,-999.0,-999.0,35,0.00,,,0.00,0.000000,,2013-04-10 23:03:00,
2013-04-10 19:10:00,78.0,53.0,-100.00,North,-999,-999.0,-999.0,42,0.00,,,0.00,0.000000,,2013-04-10 23:10:00,
2013-04-10 19:33:00,78.0,53.0,-100.00,North,-999,-999.0,-999.0,42,0.00,,,0.00,0.000000,,2013-04-10 23:33:00,
2013-04-10 19:43:00,78.0,53.0,-100.00,North,-999,-999.0,-999.0,42,0.00,,,0.00,0.000000,,2013-04-10 23:43:00,
2013-04-10 19:53:00,78.0,53.0,-100.00,North,-999,-999.0,-999.0,42,0.00,,,0.00,0.000000,,2013-04-10 23:53:00,
2013-04-10 20:02:00,78.0,53.0,-100.00,North,-999,-999.0,-999.0,42,0.00,,,0.00,0.000000,,2013-04-11 00:02:00,
2013-04-10 20:10:00,74.0,53.0,-100.00,North,-999,-999.0,-999.0,48,0.00,,,0.00,0.000000,,2013-04-11 00:10:00,
2013-04-10 20:43:00,74.0,53.0,-100.00,North,-999,-999.0,-999.0,48,0.00,,,0.00,0.000000,,2013-04-11 00:43:00,
2013-04-10 20:53:00,74.0,53.0,-100.00,North,-999,-999.0,-999.0,48,0.00,,,0.00,0.000000,,2013-04-11 00:53:00,
2013-04-10 21:02:00,74.0,53.0,-100.00,North,-999,-999.0,-999.0,48,0.00,,,0.00,0.000000,,2013-04-11 01:02:00,
2013-04-10 21:10:00,72.0,53.0,-100.00,North,-999,-999.0,-999.0,52,0.00,,,0.00,0.000000,,2013-04-11 01:10:00,
2013-04-10 21:42:00,72.0,53.0,-100.00,North,-999,-999.0,-999.0,52,0.00,,,0.00,0.000000,,2013-04-11 01:42:00,
2013-04-10 21:52:00,72.0,53.0,-100.00,North,-999,-999.0,-999.0,52,0.00,,,0.00,0.000000,,2013-04-11 01:52:00,
2013-04-10 22:03:00,72.0,53.0,-100.00,North,-999,-999.0,-999.0,52,0.00,,,0.00,0.000000,,2013-04-11 02:03:00,
2013-04-10 22:10:00,70.0,53.0,-100.00,North,-999,-999.0,-999.0,55,0.00,,,0.00,0.000000,,2013-04-11 02:10:00,
2013-04-10 22:53:00,70.0,53.0,-100.00,North,-999,-999.0,-999.0,55,0.00,,,0.00,0.000000,,2013-04-11 02:53:00,
2013-04-10 23:02:00,70.0,53.0,-100.00,North,-999,-999.0,-999.0,55,0.00,,,0.00,0.000000,,2013-04-11 03:02:00,
2013-04-10 23:10:00,68.0,52.0,-100.00,North,-999,-999.0,-999.0,57,0.00,,,0.00,0.000000,,2013-04-11 03:10:00,
2013-04-10 23:43:00,68.0,52.0,-100.00,North,-999,-999.0,-999.0,57,0.00,,,0.00,0.000000,,2013-04-11 03:43:00,
2013-04-10 23:54:00,68.0,52.0,-100.00,North,-999,-999.0,-999.0,57,0.00,,,0.00,0.000000,,2013-04-11 03:54:00,